Ignacio, CO

5:58 AM MST on February 19, 2017 (GMT -0700)
Durango-La Plata County

Weather History for KDRO - December, 2011

Change the Weather History Date:

Saturday, December 24, 2011

  Actual Average Record
Temperature  
Mean Temperature 24 °F 24 °F  
Max Temperature 37 °F 38 °F 51 °F (1980)
Min Temperature 10 °F 11 °F -21 °F (1990)
Degree Days  
Heating Degree Days 42 41  
Month to date heating degree days 914  
Since 1 July heating degree days 2587  
Cooling Degree Days 0 0  
Month to date cooling degree days 0  
Year to date cooling degree days 243  
Moisture  
Dew Point 14 °F    
Average Humidity 74    
Maximum Humidity 88    
Minimum Humidity 43    
Precipitation  
Precipitation 0.00 in 0.04 in 0.45 in (1988)
Month to date precipitation 0.80  
Year to date precipitation 15.70  
Sea Level Pressure  
Sea Level Pressure 30.56 in    
Wind  
Wind Speed 3 mph (WSW)    
Max Wind Speed 9 mph    
Max Gust Speed -    
Visibility 10 miles    
Events      
T = Trace of Precipitation, MM = Missing Value Source: NWS Daily Summary

Daily Weather History Graph

Daily Weather History Graph

Search for Another Location

Airport or City:

Trip Planner

Search our weather history database for the weather conditions in past years. The results will help you decide how hot, cold, wet, or windy it might be!

Date:

Astronomy

Dec. 24, 2011 Rise Set
Actual Time 7:22 AM MST 4:58 PM MST
Civil Twilight 6:53 AM MST 5:28 PM MST
Nautical Twilight 6:20 AM MST 6:00 PM MST
Astronomical Twilight 5:48 AM MST 6:32 PM MST
Moon 7:13 AM MST (12/24) 5:15 PM MST (12/24)
Length of Visible Light 10h 34m
Length of Day
9h 36m
New Moon, 0% of the Moon is Illuminated
Dec 24
New Moon
Dec 31
First Quarter
Jan 9
Full
Jan 16
Last Quarter
Jan 23
New

Hourly Weather History & Observations

Time (MST) Temp. Windchill Dew Point Humidity Pressure Visibility Wind Dir Wind Speed Gust Speed Precip Events Conditions
12:53 AM 14.0 °F 8.2 °F 10.0 °F 84% 30.49 in 10.0 mi NE 3.5 mph - N/A   Clear
1:53 AM 12.0 °F - 9.0 °F 88% 30.49 in 10.0 mi Calm Calm - N/A   Clear
2:53 AM 12.9 °F 6.9 °F 10.0 °F 88% 30.49 in 10.0 mi NE 3.5 mph - N/A   Clear
3:53 AM 10.9 °F 4.7 °F 8.1 °F 88% 30.50 in 10.0 mi NNE 3.5 mph - N/A   Clear
4:53 AM 10.0 °F - 7.0 °F 87% 30.53 in 10.0 mi Calm Calm - N/A   Clear
5:53 AM 10.0 °F 3.6 °F 6.1 °F 84% 30.55 in 10.0 mi SE 3.5 mph - N/A   Clear
6:53 AM 10.0 °F 3.6 °F 7.0 °F 87% 30.59 in 10.0 mi NE 3.5 mph - N/A   Clear
7:53 AM 12.0 °F - 8.1 °F 84% 30.62 in 10.0 mi Calm Calm - N/A   Clear
8:53 AM 16.0 °F - 12.0 °F 84% 30.63 in 10.0 mi Calm Calm - N/A   Clear
9:53 AM 21.0 °F - 16.0 °F 81% 30.63 in 10.0 mi Calm Calm - N/A   Clear
10:53 AM 26.1 °F - 17.1 °F 69% 30.59 in 10.0 mi Calm Calm - N/A   Clear
11:53 AM 30.9 °F 26.2 °F 18.0 °F 59% 30.56 in 10.0 mi SW 4.6 mph - N/A   Clear
12:53 PM 34.0 °F 28.8 °F 17.1 °F 50% 30.52 in 10.0 mi SSW 5.8 mph - N/A   Clear
1:53 PM 37.0 °F 30.4 °F 18.0 °F 46% 30.50 in 10.0 mi SSW 9.2 mph - N/A   Clear
2:53 PM 37.9 °F 33.5 °F 17.1 °F 43% 30.48 in 10.0 mi South 5.8 mph - N/A   Clear
3:53 PM 37.0 °F 32.4 °F 19.0 °F 48% 30.52 in 10.0 mi SW 5.8 mph - N/A   Clear
4:53 PM 34.0 °F 29.8 °F 21.0 °F 59% 30.54 in 10.0 mi WSW 4.6 mph - N/A   Clear
5:53 PM 28.9 °F 22.8 °F 19.9 °F 69% 30.57 in 10.0 mi WSW 5.8 mph - N/A   Clear
6:53 PM 27.0 °F - 18.0 °F 69% 30.59 in 10.0 mi Calm Calm - N/A   Clear
7:53 PM 24.1 °F - 18.0 °F 77% 30.61 in 10.0 mi Calm Calm - N/A   Clear
8:53 PM 21.9 °F 15.7 °F 17.1 °F 82% 30.60 in 10.0 mi North 4.6 mph - N/A   Clear
9:53 PM 19.9 °F - 16.0 °F 85% 30.59 in 10.0 mi Calm Calm - N/A   Clear
10:53 PM 19.0 °F - 14.0 °F 81% 30.58 in 10.0 mi Calm Calm - N/A   Clear
11:53 PM 18.0 °F 9.8 °F 12.9 °F 81% 30.56 in 10.0 mi North 5.8 mph - N/A   Clear